Location: *
(43.9905°S, 176.4941°W)
Time: 02:53:27
(UTC+00:00)

Cosmos 1833 Rocket - Pass Details

Date: 08 December 2019
Orbit: 831 x 841 km, 71.0° (Epoch: 17 January)

Event Time Altitude Azimuth Distance (km) Brightness Sun altitude
Rises 08:23:35 0° 207° (SSW) 3,420 7.5 -9.9°
Reaches altitude 10° 08:26:03 10° 207° (SSW) 2,478 6.5 -10.2°
Maximum altitude 08:31:45 81° 292° (WNW) 858 2.8 -10.9°
Enters shadow 08:36:52 13° 19° (NNE) 2,259 4.4 -11.5°
